Weather History for South Lake Tahoe, CA

Change the Weather History Date:

Tuesday, May 24, 2011

  Actual Average Record
Temperature  
Mean Temperature 46 °F 50 °F  
Max Temperature 62 °F 66 °F 81 °F (2000)
Min Temperature 30 °F 34 °F 23 °F (1968)
Degree Days  
Heating Degree Days 19 15  
Month to date heating degree days 487 430  
Since 1 July heating degree days 7046 7320  
Cooling Degree Days 0 0  
Month to date cooling degree days 0 0  
Year to date cooling degree days 0 0  
Moisture  
Dew Point 28 °F    
Average Humidity 47    
Maximum Humidity 78    
Minimum Humidity 15    
Precipitation  
Precipitation 0.00 in - 0.79 in (1931)
Month to date precipitation 0.94  
Year to date precipitation 10.45  
Snow  
Snow 0.00 in - - ()
Month to date snowfall 4.0  
Snow Depth 0.00 in    
Sea Level Pressure  
Sea Level Pressure 30.00 in    
Wind  
Wind Speed 4 mph (SSW)    
Max Wind Speed 15 mph    
Max Gust Speed 26 mph    
Visibility 10 miles    
Events      
T = Trace of Precipitation, MM = Missing Value Source: NWS Daily Summary

Daily Weather History Graph

Daily Weather History Graph

Search for Another Location

Airport:

Trip Planner

Search our weather history database for the weather conditions in past years. The results will help you decide how hot, cold, wet, or windy it might be!

Date:

Astronomy

May. 24, 2011 Rise Set
Actual Time 5:40 AM PDT 8:13 PM PDT
Civil Twilight 5:09 AM PDT 8:44 PM PDT
Nautical Twilight 4:31 AM PDT 9:22 PM PDT
Astronomical Twilight 3:49 AM PDT 10:05 PM PDT
Moon 1:12 AM PDT (5/24) 12:48 PM PDT (5/24)
Length of Visible Light 15h 34m
Length of Day
14h 32m
Waning Gibbous, 50% of the Moon is Illuminated
May 24
Waning Gibbous
Jun 1
New
Jun 8
First Quarter
Jun 15
Full
Jun 23
Last Quarter

Hourly Weather History & Observations

Time (PDT) Temp. Windchill Dew Point Humidity Pressure Visibility Wind Dir Wind Speed Gust Speed Precip Events Conditions
12:53 AM 41.0 °F 35.2 °F 30.0 °F 65% 29.94 in 10.0 mi South 9.2 mph - N/A   Clear
1:53 AM 39.0 °F 35.7 °F 28.9 °F 67% 29.94 in 10.0 mi Variable 4.6 mph - N/A   Clear
2:53 AM 36.0 °F 33.3 °F 28.0 °F 73% 29.95 in 10.0 mi SSW 3.5 mph - N/A   Clear
3:53 AM 33.1 °F - 27.0 °F 78% 29.97 in 10.0 mi Calm Calm - N/A   Clear
4:53 AM 30.9 °F - 25.0 °F 79% 29.97 in 10.0 mi Calm Calm - N/A   Clear
5:53 AM 30.0 °F 26.5 °F 25.0 °F 82% 29.99 in 10.0 mi South 3.5 mph - N/A   Clear
6:53 AM 32.0 °F - 25.0 °F 75% 30.02 in 10.0 mi Calm Calm - N/A   Clear
7:53 AM 39.9 °F - 24.1 °F 53% 30.01 in 10.0 mi Calm Calm - N/A   Clear
8:53 AM 46.0 °F - 19.0 °F 34% 30.01 in 10.0 mi Calm Calm - N/A   Clear
9:53 AM 50.0 °F - 21.0 °F 32% 30.00 in 10.0 mi SSE 8.1 mph - N/A   Clear
10:53 AM 53.1 °F - 25.0 °F 34% 30.00 in 10.0 mi Variable 4.6 mph - N/A   Clear
11:53 AM 55.0 °F - 26.1 °F 33% 30.00 in 10.0 mi NNE 6.9 mph - N/A   Clear
12:53 PM 57.0 °F - 23.0 °F 27% 30.00 in 10.0 mi Variable 4.6 mph - N/A   Clear
1:53 PM 60.1 °F - 12.9 °F 16% 29.99 in 10.0 mi North 4.6 mph - N/A   Clear
2:53 PM 60.1 °F - 23.0 °F 24% 30.01 in 10.0 mi South 10.4 mph 16.1 mph N/A   Clear
3:53 PM 60.1 °F - 30.9 °F 33% 30.02 in 10.0 mi SSW 11.5 mph 18.4 mph N/A   Clear
4:53 PM 55.9 °F - 33.1 °F 42% 30.05 in 10.0 mi Variable 4.6 mph - N/A   Partly Cloudy
5:53 PM 55.0 °F - 30.9 °F 40% 30.05 in 10.0 mi SSW 9.2 mph - N/A   Mostly Cloudy
6:53 PM 55.9 °F - 30.9 °F 39% 30.04 in 10.0 mi SSW 6.9 mph - N/A   Partly Cloudy
7:53 PM 51.1 °F - 36.0 °F 56% 30.04 in 10.0 mi SW 3.5 mph - N/A   Clear
8:53 PM 48.9 °F - 36.0 °F 61% 30.02 in 10.0 mi Calm Calm - N/A   Clear
9:53 PM 45.0 °F - 35.1 °F 68% 30.04 in 10.0 mi Calm Calm - N/A   Clear
10:53 PM 43.0 °F - 34.0 °F 71% 30.03 in 10.0 mi Calm Calm - N/A   Clear
11:53 PM 42.1 °F - 33.1 °F 70% 30.02 in 10.0 mi Calm Calm - N/A   Clear